Location: La Trinit�
(48.1620°N, 3.4512°W)
Time: 09:47:40
(UTC+00:00)

FALCON 9 DEB - Pass Details

Date: 08 May 2021
Orbit: 364 x 376 km, 53.0° (Epoch: 12 June)

Event Time Altitude Azimuth Distance (km) Brightness Sun altitude
Rises 20:17:27 0° 292° (WNW) 2,206 8.7 -6.5°
Reaches altitude 10° 20:19:39 10° 279° (W) 1,356 6.8 -6.8°
Maximum altitude 20:22:16 27° 219° (SW) 744 4.3 -7.2°
Drops below altitude 10° 20:24:53 10° 159° (SSE) 1,352 5.1 -7.5°
Enters shadow 20:25:18 - 155° (SSE) 1,504 5.3 -7.6°
